Wind_Speed
6 8 11 10 9 9 10 9 9 9 9 11 13 15 17 19 20 22 23 24 26 27 27 26 26 27 30 38 45 50 55 51 53 57 59 62 67 72 70 70 68 65 67 70 71
7 9 8 7 8 9 9 10 11 12 13 15 17 19 20 22 21 22 23 24 24 24 25 24 23 22 21 22 32 43 51 55 61 65 66 67 68 73 74 72 72 71 72 72 72
5 7 7 7 8 10 11 13 14 16 18 20 20 20 21 22 22 21 21 21 22 22 23 24 24 21 20 19 13 17 28 44 58 64 67 68 69 70 70 73 78 76 72 77 75
4 6 9 11 12 13 14 16 17 18 18 19 20 20 19 20 19 18 19 19 20 21 22 23 24 23 20 19 17 12 12 22 32 39 54 64 68 69 72 73 76 76 77 78 78
4 6 8 9 11 12 13 15 16 17 18 18 19 19 19 19 19 18 18 19 20 20 21 22 23 23 22 20 18 17 16 17 15 19 32 43 52 62 66 73 75 77 75 74 78
6 7 8 9 10 12 13 15 16 16 18 18 19 20 20 20 21 21 22 22 23 23 23 24 25 25 25 23 21 19 18 18 19 18 17 25 34 43 53 60 68 72 74 73 73
7 7 8 8 10 11 12 14 16 17 18 20 21 22 22 23 24 25 26 26 27 27 27 27 28 28 28 27 26 24 24 23 23 24 22 23 25 31 39 46 54 59 63 65 70
9 9 10 11 12 13 14 16 17 19 21 22 23 23 24 25 26 28 29 30 30 31 31 31 32 32 31 31 30 30 30 29 29 29 30 32 32 33 36 38 44 46 49 52 58
13 13 14 14 15 16 18 20 21 22 23 24 25 26 27 28 30 31 33 33 34 34 33 32 33 33 33 34 32 31 30 33 32 32 36 38 38 39 40 41 45 49 47 49 53
20 20 20 19 20 20 22 23 24 25 26 28 29 30 31 33 34 35 36 37 37 37 36 34 35 33 35 33 33 34 33 33 33 36 36 37 41 45 44 47 51 54 53 56 57
25 25 24 24 25 24 26 26 26 28 28 29 32 35 34 36 37 38 38 39 40 39 38 37 35 38 36 36 37 37 39 42 41 41 43 43 47 47 50 52 57 60 61 62 63
28 28 29 30 30 29 30 30 30 31 33 34 35 37 38 39 40 40 39 40 40 40 38 37 37 40 39 39 39 39 41 43 41 42 43 45 49 48 51 56 58 61 63 65 67
30 31 32 33 32 33 34 34 35 37 38 37 41 41 42 43 44 41 41 39 39 39 40 37 39 39 38 37 40 37 40 40 41 42 42 42 47 46 50 51 54 59 62 62 67
33 33 34 35 36 37 37 38 38 40 43 46 42 42 42 43 42 39 37 36 36 39 38 35 38 38 36 39 39 37 37 35 39 41 41 39 46 47 51 55 59 64 67 72 76
35 36 38 39 40 40 40 41 42 43 45 48 44 43 41 39 39 36 34 34 33 33 32 32 36 34 35 34 33 31 34 39 37 38 41 44 48 53 56 59 62 66 66 67 70
38 39 40 41 41 43 44 45 45 46 46 46 44 41 39 36 33 28 27 26 26 28 28 29 30 30 28 27 30 31 32 35 36 40 45 48 50 52 58 63 65 58 62 68 73
43 42 43 45 45 48 49 48 48 48 44 44 41 39 31 28 23 22 20 22 22 22 21 21 22 22 25 25 29 30 33 37 40 40 47 54 54 57 58 57 55 60 67 74 79
45 47 47 50 51 51 51 50 49 48 45 40 32 29 23 19 17 16 16 19 18 18 18 18 22 24 27 29 31 33 36 41 42 43 46 55 57 57 62 59 54 60 66 72 77
50 51 53 54 54 54 52 50 47 45 37 32 23 22 19 17 17 15 16 19 18 18 21 21 25 25 27 33 36 37 43 42 44 48 51 53 59 65 69 59 57 61 66 70 76
56 58 56 55 56 54 51 46 42 41 30 23 22 18 15 18 18 19 15 21 23 22 21 24 28 26 32 36 39 40 43 45 48 51 57 60 66 72 65 58 60 65 69 76 82
59 61 59 57 54 53 47 42 35 32 28 23 21 19 18 19 20 18 16 21 24 27 25 21 28 36 38 37 39 40 44 48 53 59 64 65 65 64 58 60 64 69 71 77 86
58 56 58 58 51 47 44 35 25 27 30 25 23 24 23 17 18 18 17 17 23 26 30 32 29 33 38 39 41 47 52 56 60 64 67 63 61 61 59 63 67 69 74 80 82
53 49 54 54 48 43 37 25 23 22 22 24 19 22 20 16 15 14 16 16 19 25 30 31 31 34 40 42 49 54 58 63 62 65 64 61 61 59 63 68 71 77 79 81 76
44 43 44 43 39 27 25 21 17 17 18 20 16 19 18 19 16 15 14 17 21 25 26 29 34 38 43 47 52 57 61 62 64 62 57 62 65 67 71 73 78 82 81 74 69
36 40 35 30 27 19 21 20 20 19 19 18 18 20 20 20 17 18 22 24 27 29 31 35 40 47 47 52 55 58 57 59 60 61 62 63 70 73 76 81 83 84 75 69 63
33 36 34 29 25 24 20 23 23 22 22 20 22 20 23 25 23 24 27 28 33 34 36 41 45 52 55 55 57 62 59 60 63 65 67 71 75 79 82 85 83 76 67 62 60
33 31 30 25 25 25 24 29 28 26 25 28 28 26 26 28 31 34 35 36 36 38 40 44 51 51 57 60 66 67 65 62 64 67 71 76 81 83 87 88 82 71 63 61 56
Wind_Direction
144 150 154 163 176 182 182 188 198 217 236 249 258 263 268 274 276 275 274 274 274 271 268 267 266 264 263 254 246 245 246 247 243 243 241 242 244 243 244 242 242 242 241 239 243
150 159 171 188 200 205 215 224 234 248 260 268 272 275 275 275 275 273 276 276 274 273 272 271 270 269 270 271 252 243 244 242 240 239 239 238 237 241 241 242 242 240 242 244 239
180 196 212 223 231 240 248 254 261 267 272 275 276 276 276 278 279 279 278 278 276 276 274 275 277 278 283 286 284 263 251 246 244 241 240 241 242 244 245 245 244 240 240 244 245
228 230 238 246 253 258 263 269 273 275 277 277 279 280 281 284 283 282 281 282 280 278 277 276 281 284 284 289 292 299 297 264 258 250 246 245 244 244 246 247 248 247 241 242 246
247 247 251 256 261 266 269 273 276 278 277 277 278 279 280 282 282 283 282 282 281 280 278 277 278 281 285 286 290 295 298 299 297 263 250 245 244 247 247 249 250 249 248 246 245
285 277 275 273 274 277 280 282 284 284 284 283 284 284 284 285 285 285 283 281 280 279 279 279 280 282 284 286 285 284 282 281 283 277 264 251 248 245 244 248 252 253 253 252 251
289 283 281 283 285 285 288 289 288 286 286 286 287 287 287 285 285 284 282 280 279 278 279 281 282 282 284 285 286 284 281 278 275 273 271 264 257 251 247 247 253 256 257 257 256
290 287 286 288 290 292 293 293 292 292 289 288 288 288 288 288 288 286 285 284 282 280 279 279 280 282 283 283 282 283 282 280 276 274 271 267 259 259 261 258 260 260 256 255 253
284 290 292 293 294 297 298 295 292 293 293 292 292 291 290 290 288 288 287 284 283 281 280 280 280 281 280 279 281 278 277 278 279 276 274 274 273 269 266 264 264 264 264 260 258
282 282 284 287 290 292 297 296 293 293 294 293 291 290 290 290 290 289 286 283 282 280 280 280 279 277 276 279 277 278 276 274 273 273 275 276 280 280 281 276 271 266 261 256 260
280 283 283 286 289 287 293 294 294 291 290 291 291 289 290 291 289 289 286 281 279 278 280 280 278 275 277 276 277 278 277 274 273 271 269 265 262 264 266 269 268 270 271 272 270
278 281 285 288 290 288 293 292 295 294 290 290 290 292 291 290 286 285 282 280 277 277 276 275 273 274 276 278 278 275 275 276 278 276 273 274 272 273 271 273 277 278 276 276 274
277 280 282 285 287 290 293 295 297 297 293 291 295 295 292 291 287 286 281 278 274 273 273 271 269 270 271 273 272 277 278 280 281 280 278 280 279 280 281 281 282 283 283 283 283
280 281 281 284 288 290 292 295 297 298 298 297 296 296 293 290 286 284 279 276 272 270 273 272 270 271 274 273 278 278 281 280 280 285 288 289 289 290 288 287 288 288 289 287 285
281 280 283 285 288 290 292 296 297 298 299 299 300 299 296 291 286 284 280 275 272 271 272 268 269 272 272 277 277 277 275 278 286 289 287 287 285 288 289 289 291 293 294 291 288
280 280 282 285 288 292 294 297 298 298 299 299 301 298 295 289 287 284 279 277 272 269 268 268 272 273 276 272 272 277 282 286 288 290 290 291 291 293 296 297 298 299 300 299 299
280 281 283 287 290 293 295 297 299 297 299 300 300 298 292 288 288 287 280 276 273 273 272 271 271 272 271 273 276 282 285 287 289 291 295 298 299 301 299 303 304 305 304 304 305
280 281 285 289 292 294 296 297 298 298 301 299 296 292 292 290 288 290 287 282 277 274 272 270 271 274 281 282 283 286 283 285 288 290 296 298 302 301 301 304 301 301 299 301 306
280 283 286 290 292 293 296 298 297 297 299 293 289 286 288 283 286 285 289 279 276 275 272 277 276 278 280 285 292 295 293 293 294 294 298 299 301 307 303 302 300 297 297 302 306
282 285 287 289 290 293 295 294 296 296 288 279 280 279 287 281 277 280 282 278 281 278 282 284 283 278 277 284 291 292 294 298 299 302 302 301 299 303 303 303 301 303 306 308 308
283 286 286 287 290 291 291 290 292 284 278 277 277 279 283 283 278 275 273 280 281 286 289 283 284 291 292 295 298 299 299 300 301 303 306 302 303 302 304 304 305 306 307 308 308
282 285 287 288 288 286 287 294 280 271 274 264 268 271 279 278 268 270 271 267 278 286 292 298 299 294 297 299 300 301 299 300 305 310 309 311 310 309 311 305 304 303 306 309 309
279 280 281 284 285 285 284 277 269 264 266 271 271 269 274 270 273 280 283 287 283 286 296 300 297 294 293 295 300 299 299 305 310 307 305 307 306 308 304 305 308 308 309 310 310
276 273 278 281 284 281 269 263 259 263 265 271 275 264 265 275 279 279 284 286 291 298 299 295 293 290 289 297 308 307 306 305 304 305 307 306 308 310 309 310 310 311 312 311 311
270 271 277 277 281 267 255 251 260 264 269 272 265 264 274 278 279 298 299 298 302 305 300 298 305 305 297 307 311 309 310 310 310 311 311 309 311 309 310 310 312 313 314 312 309
264 270 276 274 272 268 247 250 261 261 267 264 259 269 279 285 294 286 290 298 305 304 302 300 304 308 306 309 310 311 312 308 308 310 310 310 309 310 310 311 312 313 312 310 308
266 271 278 271 271 263 253 252 259 266 262 262 267 274 279 288 286 292 296 300 303 303 302 299 304 307 306 309 307 309 310 308 308 311 311 310 310 310 312 313 314 313 312 312 313
Height
10857 10858 10859 10861 10862 10864 10866 10867 10869 10870 10871 10872 10872 10872 10872 10871 10872 10871 10869 10868 10867 10867 10867 10866 10866 10865 10864 10862 10864 10864 10865 10876 10880 10879 10883 10884 10884 10884 10888 10891 10898 10903 10902 10903 10907
10858 10859 10860 10861 10862 10864 10865 10866 10867 10868 10868 10868 10868 10868 10867 10866 10866 10865 10864 10863 10861 10861 10860 10859 10859 10858 10857 10854 10852 10855 10855 10860 10860 10861 10862 10867 10866 10865 10873 10880 10882 10889 10889 10891 10897
10857 10859 10859 10860 10861 10862 10863 10864 10864 10865 10865 10864 10864 10863 10862 10861 10861 10861 10859 10857 10856 10855 10854 10852 10852 10852 10851 10848 10845 10845 10847 10846 10845 10853 10854 10858 10859 10860 10865 10865 10866 10871 10879 10876 10885
10857 10857 10858 10859 10859 10860 10860 10860 10860 10860 10860 10859 10859 10858 10857 10857 10857 10856 10854 10853 10851 10850 10849 10847 10846 10845 10845 10843 10842 10842 10840 10837 10839 10844 10844 10849 10849 10850 10853 10852 10849 10858 10866 10868 10870
10855 10856 10856 10856 10857 10857 10857 10857 10857 10857 10856 10855 10854 10853 10853 10852 10851 10850 10849 10848 10847 10845 10844 10843 10841 10840 10839 10839 10838 10836 10835 10832 10832 10835 10835 10837 10839 10839 10844 10839 10839 10842 10847 10856 10859
10853 10853 10853 10853 10854 10854 10854 10854 10853 10852 10851 10850 10849 10848 10848 10846 10845 10844 10844 10843 10842 10840 10839 10838 10837 10835 10834 10834 10833 10832 10830 10830 10827 10827 10828 10829 10830 10831 10831 10828 10825 10827 10834 10843 10847
10851 10851 10850 10850 10850 10850 10850 10850 10849 10848 10847 10846 10844 10843 10842 10841 10840 10839 10838 10837 10836 10836 10835 10833 10831 10830 10830 10828 10827 10826 10824 10823 10821 10819 10821 10822 10822 10821 10822 10821 10817 10820 10825 10831 10830
10848 10848 10848 10848 10847 10847 10847 10846 10845 10844 10842 10841 10840 10838 10837 10836 10835 10833 10831 10830 10829 10828 10828 10827 10825 10824 10823 10822 10822 10820 10818 10816 10815 10815 10814 10813 10814 10813 10812 10813 10811 10812 10816 10817 10815
10846 10845 10845 10844 10844 10843 10842 10842 10841 10839 10837 10835 10834 10833 10831 10830 10828 10826 10825 10823 10822 10821 10820 10819 10817 10817 10815 10815 10815 10814 10812 10808 10810 10808 10804 10803 10803 10804 10805 10807 10802 10799 10802 10801 10798
10842 10842 10841 10841 10840 10839 10838 10836 10835 10834 10832 10830 10828 10827 10825 10823 10821 10819 10817 10815 10813 10812 10811 10812 10810 10809 10807 10807 10806 10806 10806 10804 10804 10800 10798 10797 10793 10790 10792 10790 10785 10784 10788 10787 10787
10837 10836 10836 10835 10835 10834 10833 10831 10830 10828 10826 10824 10821 10819 10818 10815 10813 10810 10809 10806 10804 10803 10803 10804 10802 10798 10800 10799 10798 10797 10795 10792 10794 10793 10791 10791 10786 10787 10783 10779 10772 10770 10771 10772 10771
10831 10831 10830 10829 10828 10827 10826 10824 10823 10821 10818 10816 10814 10811 10810 10807 10804 10802 10799 10797 10795 10794 10795 10794 10792 10789 10790 10790 10789 10789 10785 10782 10783 10781 10779 10776 10771 10776 10771 10765 10763 10756 10753 10752 10749
10826 10825 10823 10822 10821 10820 10819 10817 10815 10812 10808 10809 10805 10803 10799 10796 10791 10792 10788 10788 10786 10785 10784 10786 10783 10782 10782 10781 10777 10780 10775 10773 10770 10766 10768 10765 10760 10761 10755 10754 10749 10741 10737 10736 10729
10818 10817 10816 10815 10814 10812 10811 10809 10807 10803 10798 10793 10796 10792 10791 10784 10779 10780 10778 10776 10776 10773 10774 10776 10771 10772 10773 10770 10769 10769 10765 10762 10759 10758 10754 10755 10749 10748 10745 10739 10733 10726 10720 10712 10706
10810 10809 10807 10806 10805 10804 10802 10801 10798 10795 10791 10782 10782 10780 10777 10773 10770 10769 10767 10765 10765 10764 10765 10765 10762 10763 10763 10763 10759 10759 10757 10753 10751 10749 10745 10744 10741 10735 10732 10727 10720 10712 10699 10689 10682
10801 10799 10798 10797 10797 10795 10793 10791 10789 10785 10781 10773 10773 10769 10766 10763 10759 10760 10758 10756 10756 10755 10756 10755 10754 10754 10755 10754 10752 10751 10748 10745 10744 10739 10734 10730 10728 10727 10717 10710 10703 10694 10679 10667 10656
10791 10790 10789 10787 10788 10785 10782 10780 10778 10773 10772 10766 10761 10758 10757 10755 10753 10752 10752 10750 10749 10748 10749 10749 10747 10747 10746 10747 10745 10745 10743 10739 10735 10731 10723 10714 10715 10709 10705 10701 10691 10679 10663 10647 10633
10781 10780 10780 10778 10776 10774 10772 10769 10765 10762 10761 10756 10754 10750 10749 10748 10748 10747 10746 10744 10743 10743 10743 10743 10742 10741 10739 10738 10738 10738 10736 10731 10728 10723 10719 10707 10702 10698 10689 10687 10682 10671 10653 10640 10626
10769 10770 10769 10767 10764 10762 10761 10758 10752 10751 10751 10746 10746 10744 10745 10744 10743 10743 10742 10739 10739 10739 10737 10738 10736 10736 10734 10730 10728 10727 10720 10719 10716 10711 10707 10698 10689 10682 10673 10671 10667 10654 10641 10630 10617
10757 10757 10758 10755 10753 10751 10750 10747 10742 10739 10741 10740 10738 10739 10739 10738 10738 10737 10738 10734 10732 10734 10734 10731 10729 10731 10727 10725 10722 10718 10713 10709 10703 10699 10692 10686 10675 10667 10659 10656 10646 10634 10624 10609 10594
10747 10742 10743 10742 10743 10740 10738 10736 10736 10730 10730 10731 10731 10731 10732 10731 10731 10732 10733 10730 10727 10725 10726 10727 10723 10718 10717 10716 10712 10706 10700 10696 10691 10684 10678 10670 10663 10649 10648 10640 10628 10618 10608 10596 10577
10737 10733 10726 10730 10731 10727 10726 10727 10727 10723 10721 10724 10724 10723 10724 10725 10724 10724 10725 10725 10721 10720 10718 10717 10719 10712 10706 10703 10701 10695 10687 10681 10675 10667 10655 10649 10646 10635 10628 10620 10615 10606 10594 10580 10563
10723 10721 10719 10716 10716 10718 10716 10718 10717 10716 10716 10716 10717 10717 10717 10718 10719 10720 10719 10719 10718 10714 10712 10710 10708 10705 10698 10697 10692 10683 10674 10667 10662 10654 10645 10639 10627 10625 10615 10605 10594 10583 10572 10557 10543
10712 10710 10710 10707 10706 10708 10707 10709 10710 10711 10710 10710 10712 10711 10711 10711 10712 10713 10713 10712 10711 10709 10707 10704 10701 10697 10692 10688 10683 10672 10665 10657 10649 10642 10637 10623 10613 10603 10592 10583 10572 10562 10551 10537 10524
10699 10697 10700 10700 10699 10701 10702 10704 10705 10705 10705 10706 10706 10705 10704 10705 10705 10706 10705 10704 10702 10699 10696 10692 10689 10685 10680 10676 10668 10659 10653 10641 10630 10621 10617 10611 10597 10586 10575 10563 10553 10541 10528 10517 10505
10691 10689 10689 10692 10694 10694 10697 10697 10698 10699 10698 10700 10699 10699 10698 10698 10699 10698 10697 10697 10693 10690 10686 10680 10677 10673 10664 10661 10655 10646 10641 10630 10620 10610 10601 10592 10581 10570 10557 10545 10536 10525 10513 10501 10490
10681 10682 10682 10684 10686 10687 10688 10688 10690 10691 10693 10691 10690 10691 10691 10691 10689 10687 10687 10685 10684 10681 10678 10673 10667 10662 10652 10646 10637 10632 10626 10616 10608 10599 10586 10574 10562 10550 10536 10522 10512 10506 10497 10486 10478